Location: Newark
(25.0000°N, 73.5000°E)
Time: 01:02:56
(UTC+00:00)

Tiros 1 despin weight - Pass Details

Date: 09 March 2021
Orbit: 593 x 641 km, 48.2° (Epoch: 15 April)

Event Time Altitude Azimuth Distance (km) Brightness Sun altitude
Rises 16:08:02 0° 263° (W) 2,835 ? -40.3°
Enters shadow 16:10:27 - 278° (W) 2,068 ? -40.8°
Reaches altitude 10° 16:10:55 10° 282° (WNW) 1,943 - -40.9°
Maximum altitude 16:14:01 18° 326° (NNW) 1,495 - -41.6°
Drops below altitude 10° 16:17:08 10° 10° (N) 1,966 - -42.2°
Sets 16:20:05 0° 30° (NNE) 2,884 - -42.9°
